• en France
  • Liste des pays
  • À 7 jours
  • Température de l'eau
  • Carte satellitaire
  • Carte météo
  • Widgets météo
  • user-avatar
    Se connecter

    Météo par heure à Kazmaaul

    Ce jour, 21 Août, Mardi

    Heure Température Précipitation Vent Pression Humidité
    00:00 +21°C° 0 mm 5 m/s 762 mmHg 62%
    01:00 +21°C° 0 mm 5 m/s 762 mmHg 62%
    02:00 +21°C° 0 mm 5 m/s 761 mmHg 63%
    03:00 +21°C° 0 mm 5 m/s 762 mmHg 66%
    04:00 +21°C° 0 mm 5 m/s 762 mmHg 65%
    05:00 +21°C° 0 mm 5 m/s 762 mmHg 65%
    06:00 +21°C° 0 mm 5 m/s 761 mmHg 64%
    07:00 +23°C° 0 mm 6 m/s 761 mmHg 58%
    08:00 +27°C° 0 mm 6 m/s 761 mmHg 51%
    09:00 +29°C° 0 mm 7 m/s 761 mmHg 44%
    10:00 +30°C° 0 mm 7 m/s 761 mmHg 41%
    11:00 +32°C° 0 mm 7 m/s 761 mmHg 39%
    12:00 +32°C° 0 mm 8 m/s 761 mmHg 37%
    13:00 +32°C° 0 mm 8 m/s 761 mmHg 37%
    14:00 +32°C° 0 mm 8 m/s 760 mmHg 38%
    15:00 +32°C° 0 mm 8 m/s 760 mmHg 39%
    16:00 +31°C° 0 mm 8 m/s 760 mmHg 44%
    17:00 +29°C° 0 mm 7 m/s 760 mmHg 49%
    18:00 +28°C° 0 mm 7 m/s 760 mmHg 54%
    19:00 +26°C° 0 mm 6 m/s 760 mmHg 59%
    20:00 +24°C° 0 mm 6 m/s 760 mmHg 64%
    21:00 +23°C° 0 mm 5 m/s 760 mmHg 70%
    22:00 +23°C° 0 mm 5 m/s 760 mmHg 71%
    23:00 +23°C° 0 mm 5 m/s 760 mmHg 72%

    Demain, 22 Août, Mercredi

    Heure Température Précipitation Vent Pression Humidité
    00:00 +23°C° 0 mm 4 m/s 760 mmHg 73%
    01:00 +22°C° 0 mm 4 m/s 759 mmHg 74%
    02:00 +22°C° 0 mm 4 m/s 759 mmHg 75%
    03:00 +22°C° 0 mm 3 m/s 759 mmHg 75%
    04:00 +22°C° 0 mm 3 m/s 759 mmHg 74%
    05:00 +23°C° 0 mm 2 m/s 759 mmHg 73%
    06:00 +23°C° 0 mm 2 m/s 759 mmHg 71%
    07:00 +26°C° 0 mm 2 m/s 759 mmHg 63%
    08:00 +28°C° 0 mm 2 m/s 759 mmHg 56%
    09:00 +30°C° 0 mm 3 m/s 759 mmHg 48%
    10:00 +31°C° 0 mm 3 m/s 759 mmHg 44%
    11:00 +34°C° 0 mm 3 m/s 759 mmHg 40%
    12:00 +35°C° 0 mm 3 m/s 759 mmHg 36%
    13:00 +35°C° 0,1 mm 3 m/s 758 mmHg 35%
    14:00 +36°C° 0,1 mm 3 m/s 758 mmHg 34%
    15:00 +36°C° 0,1 mm 4 m/s 758 mmHg 34%
    16:00 +35°C° 0,1 mm 4 m/s 758 mmHg 37%
    17:00 +34°C° 0,1 mm 3 m/s 758 mmHg 41%
    18:00 +33°C° 0,1 mm 3 m/s 758 mmHg 44%
    19:00 +30°C° 0 mm 3 m/s 759 mmHg 49%
    20:00 +28°C° 0 mm 3 m/s 759 mmHg 55%
    21:00 +26°C° 0 mm 2 m/s 760 mmHg 60%
    22:00 +26°C° 0 mm 2 m/s 760 mmHg 59%
    23:00 +26°C° 0 mm 2 m/s 760 mmHg 59%

    Après-demain, 23 Août, Jeudi

    Heure Température Précipitation Vent Pression Humidité
    00:00 +26°C° 0 mm 2 m/s 760 mmHg 58%
    01:00 +25°C° 0 mm 2 m/s 760 mmHg 59%
    02:00 +25°C° 0 mm 2 m/s 760 mmHg 60%
    03:00 +25°C° 0 mm 2 m/s 760 mmHg 61%
    04:00 +25°C° 0 mm 2 m/s 760 mmHg 61%
    05:00 +25°C° 0 mm 2 m/s 760 mmHg 61%
    06:00 +25°C° 0 mm 2 m/s 760 mmHg 61%
    07:00 +27°C° 0 mm 3 m/s 761 mmHg 53%
    08:00 +29°C° 0 mm 3 m/s 761 mmHg 46%
    09:00 +33°C° 0 mm 3 m/s 761 mmHg 39%
    10:00 +34°C° 0 mm 3 m/s 761 mmHg 35%
    11:00 +35°C° 0 mm 3 m/s 761 mmHg 32%
    12:00 +36°C° 0 mm 3 m/s 761 mmHg 29%
    13:00 +36°C° 0 mm 4 m/s 761 mmHg 29%
    14:00 +36°C° 0 mm 4 m/s 761 mmHg 29%
    15:00 +36°C° 0 mm 5 m/s 761 mmHg 29%
    16:00 +34°C° 0 mm 5 m/s 761 mmHg 33%
    17:00 +33°C° 0 mm 5 m/s 761 mmHg 37%
    18:00 +32°C° 0 mm 5 m/s 761 mmHg 41%
    19:00 +29°C° 0 mm 4 m/s 761 mmHg 49%
    20:00 +27°C° 0 mm 3 m/s 762 mmHg 57%
    21:00 +25°C° 0 mm 3 m/s 762 mmHg 65%
    22:00 +25°C° 0 mm 3 m/s 762 mmHg 68%
    23:00 +24°C° 0 mm 3 m/s 762 mmHg 71%

    24 Août, Vendredi

    Heure Température Précipitation Vent Pression Humidité
    00:00 +24°C° 0 mm 3 m/s 762 mmHg 74%
    01:00 +24°C° 0 mm 3 m/s 762 mmHg 75%
    02:00 +24°C° 0 mm 3 m/s 762 mmHg 76%
    03:00 +22°C° 0 mm 3 m/s 762 mmHg 77%
    04:00 +24°C° 0 mm 3 m/s 762 mmHg 76%
    05:00 +24°C° 0 mm 3 m/s 762 mmHg 75%
    06:00 +23°C° 0 mm 4 m/s 762 mmHg 74%
    07:00 +26°C° 0 mm 4 m/s 762 mmHg 64%
    08:00 +28°C° 0 mm 5 m/s 762 mmHg 54%
    09:00 +32°C° 0 mm 6 m/s 762 mmHg 44%
    10:00 +32°C° 0 mm 7 m/s 762 mmHg 41%
    11:00 +33°C° 0 mm 7 m/s 761 mmHg 38%
    12:00 +34°C° 0 mm 8 m/s 761 mmHg 35%
    13:00 +34°C° 0 mm 8 m/s 761 mmHg 36%
    14:00 +33°C° 0 mm 8 m/s 761 mmHg 36%
    15:00 +33°C° 0 mm 8 m/s 761 mmHg 36%
    16:00 +32°C° 0,1 mm 8 m/s 761 mmHg 40%
    17:00 +29°C° 0,1 mm 7 m/s 761 mmHg 43%
    18:00 +28°C° 0,1 mm 7 m/s 760 mmHg 46%
    19:00 +27°C° 0 mm 6 m/s 761 mmHg 52%
    20:00 +25°C° 0 mm 5 m/s 761 mmHg 58%
    21:00 +23°C° 0 mm 5 m/s 761 mmHg 64%
    22:00 +23°C° 0 mm 4 m/s 761 mmHg 67%
    23:00 +23°C° 0 mm 4 m/s 761 mmHg 70%

    25 Août, Samedi

    Heure Température Précipitation Vent Pression Humidité
    00:00 +22°C° 0 mm 4 m/s 761 mmHg 72%
    01:00 +22°C° 0 mm 4 m/s 761 mmHg 73%
    02:00 +22°C° 0 mm 4 m/s 760 mmHg 74%
    03:00 +22°C° 0 mm 4 m/s 760 mmHg 75%
    04:00 +22°C° 0 mm 3 m/s 760 mmHg 74%
    05:00 +22°C° 0 mm 3 m/s 760 mmHg 73%
    06:00 +24°C° 0 mm 3 m/s 760 mmHg 71%
    07:00 +26°C° 0 mm 4 m/s 760 mmHg 61%
    08:00 +28°C° 0 mm 5 m/s 760 mmHg 50%
    09:00 +30°C° 0 mm 5 m/s 760 mmHg 40%
    10:00 +32°C° 0 mm 6 m/s 760 mmHg 36%
    11:00 +33°C° 0 mm 6 m/s 760 mmHg 33%
    12:00 +34°C° 0 mm 7 m/s 759 mmHg 30%
    13:00 +34°C° 0 mm 7 m/s 759 mmHg 30%
    14:00 +34°C° 0 mm 7 m/s 759 mmHg 31%
    15:00 +34°C° 0 mm 8 m/s 759 mmHg 31%
    16:00 +32°C° 0 mm 7 m/s 759 mmHg 35%
    17:00 +30°C° 0 mm 7 m/s 759 mmHg 38%
    18:00 +29°C° 0 mm 6 m/s 759 mmHg 42%
    19:00 +27°C° 0 mm 6 m/s 760 mmHg 48%
    20:00 +26°C° 0 mm 5 m/s 760 mmHg 54%
    21:00 +25°C° 0 mm 5 m/s 760 mmHg 61%
    22:00 +25°C° 0 mm 5 m/s 760 mmHg 62%
    23:00 +25°C° 0 mm 5 m/s 760 mmHg 64%

    26 Août, Dimanche

    Heure Température Précipitation Vent Pression Humidité
    00:00 +23°C° 0 mm 5 m/s 759 mmHg 65%
    01:00 +23°C° 0 mm 5 m/s 759 mmHg 65%
    02:00 +23°C° 0 mm 5 m/s 759 mmHg 64%
    03:00 +23°C° 0 mm 5 m/s 759 mmHg 64%
    04:00 +25°C° 0 mm 5 m/s 759 mmHg 61%
    05:00 +25°C° 0 mm 5 m/s 759 mmHg 59%
    06:00 +24°C° 0 mm 6 m/s 759 mmHg 56%
    07:00 +28°C° 0 mm 7 m/s 759 mmHg 48%
    08:00 +31°C° 0 mm 8 m/s 759 mmHg 40%
    09:00 +33°C° 0 mm 9 m/s 759 mmHg 32%
    10:00 +34°C° 0 mm 9 m/s 759 mmHg 30%
    11:00 +36°C° 0 mm 10 m/s 758 mmHg 28%
    12:00 +36°C° 0 mm 11 m/s 758 mmHg 26%
    13:00 +36°C° 0 mm 11 m/s 758 mmHg 27%
    14:00 +36°C° 0 mm 11 m/s 758 mmHg 27%
    15:00 +34°C° 0 mm 11 m/s 757 mmHg 28%
    16:00 +33°C° 0 mm 10 m/s 757 mmHg 31%
    17:00 +32°C° 0 mm 10 m/s 757 mmHg 34%
    18:00 +29°C° 0 mm 9 m/s 757 mmHg 36%
    19:00 +28°C° 0 mm 9 m/s 757 mmHg 40%
    20:00 +28°C° 0 mm 8 m/s 758 mmHg 44%
    21:00 +27°C° 0 mm 7 m/s 758 mmHg 48%
    22:00 +27°C° 0 mm 7 m/s 757 mmHg 48%
    23:00 +26°C° 0 mm 7 m/s 757 mmHg 48%
    Voir plus